www.srh.weather.gov   
NOAA logo - Click to go to the NOAA homepage   NWS logo
Weather Roundup
Enter Your "City, ST" or zip code   
Current Version              Previous Version:    01  02  03  04  05  06  07  08  09  10  11  12  13  14  15  16  17  18  19  20  21  22  23  24  25  26  27  28  29  30  
   31  32  33  34  35  36  37  38  39  40  41  42  43  44  45  46  47  48  49  50  51  52  53  54  55  56  57  58  59  60  
[Printable]
729
ASUS44 KCRP 310310
HRRCRP

SOUTH TEXAS REGIONAL WEATHER ROUNDUP
NATIONAL WEATHER SERVICE CORPUS CHRISTI TX
1000 PM CDT WED JUL 30 2014


TXZ229>244-310400-
...CORPUS CHRISTI AREA OBSERVATIONS...

CITY           SKY/WX    TMP DP  RH WIND       PRES   REMARKS
CORPUS CHRISTI PTCLDY    83  75  77 SE15      29.94R HX  90
NAS CORPUS CHR PTCLDY    83  77  82 SE17      29.94R HX  92
ROCKPORT       CLEAR     83  75  77 SE16      29.94S HX  90
KINGSVILLE NAS CLEAR     83  76  79 SE16G25   29.93R HX  91
ALICE          CLEAR     83  73  72 SE15      29.93R
FALFURRIAS     CLEAR     77  72  84 SE14G20   29.92R
$$

...VICTORIA AREA OBSERVATIONS...

CITY           SKY/WX    TMP DP  RH WIND       PRES   REMARKS
VICTORIA       CLEAR     81  73  76 S9        29.96R
BEEVILLE       FAIR      82  73  73 SE15      29.94R
PLEASANTON     CLEAR     85  66  52 SE15G25   29.91R
SAN ANTONIO    MOCLDY    88  64  44 SE22      29.92R
$$

...LAREDO AREA OBSERVATIONS...

CITY           SKY/WX    TMP DP  RH WIND       PRES   REMARKS
LAREDO         CLEAR     91  74  57 E21G26    29.89R HX 100
COTULLA        CLEAR     89  70  53 SE15G29   29.88R HX  94
DEL RIO        CLEAR     94  51  23 E8        29.84R HX  91
MCALLEN        CLEAR     85  74  69 SE21G29   29.92R HX  92
HEBBRONVILLE   CLEAR     85  73  66 E15G24    29.93R HX  92
$$

...OTHER TEXAS OBSERVATIONS...

CITY           SKY/WX    TMP DP  RH WIND       PRES   REMARKS
BROWNSVILLE    CLEAR     83  78  85 SE14G20   29.95R HX  93
HOUSTON        MOCLDY    82  73  74 SE13      29.96S
COL. STATION   PTCLDY    84  72  67 SE12      29.94R
AUSTIN         PTCLDY    88  62  41 SE15      29.90R
WACO           CLEAR     86  69  56 SE13      29.91R HX  90
FORT WORTH     PTCLDY    84  71  65 SE14      29.91R
WICHITA FALLS  MOCLDY    74  69  85 N16G25    29.96R
LUBBOCK        MOCLDY    72  61  68 N20G30    30.11R
EL PASO        MOCLDY    85  56  37 SW6       30.04R
$$

...MARINE OBSERVATIONS...

STATION/POSITION TIME  SKY/WX   TEMP    WIND        PRES    VSBY  WAVE   SWELL
                                AIR SEA DIR/SP/G                  HT/PER HT/PER
                 (UTC)          (F)     (DEG/KT/KT) (MB)    (MI)  (FT/S) (FT/S)
PORT ARANSAS     0300            81 84  130/ 14/ 16 1014.8R
BUOY 90 E PORT A 0300            84 85  140/ 12/ 14 1015.3R         1/ 4
BUOY 45 SE BAFFI 0300            84 85  150/ 17/ 21 1013.7R         3/ 4
BUOY 200 E PT IS 0300            85 87  150/  6/  8 1015.6R         1
BUOY 15 E GALVES NOT AVBL
$$



National Weather Service
Disclaimer
Last Modified: August 31, 2005
Privacy Policy